Retour au catalogue

COSMOS 2251 DEB

ActifLEO
NORAD 34641·DEBRIS·🇷🇺 Russia

Lancé Jun 16, 1993 depuis Plesetsk Cosmodrome

Loading…

Prochains Passages (prochaines 24 heures)

TLE

FraisSource: Space-Track

Époque: Sep 13, 2026, 11:53 UTC

1 34641U 93036XN  26256.49559329  .00001829  00000-0  44396-3 0  9995
2 34641  73.8352 276.9932 0014122 147.8025 338.4328 14.53603754922465

Suivez COSMOS 2251 DEB en temps réel avec AllMySat

Download on the App Store